When you browse on this site, cookies collect data to enhance your experience and personalize the content and advertising you see.
Visit our Privacy Policy to learn more. By continuing to use the site, you agree to this use of cookies and data.
  • In France
  • List of Countries
  • For 7 days
  • Water Temperature
  • Satellite Maps
  • Weather Map
  • Weather Widgets
  • user-avatar
    Login

    Hourly Weather Newcastle

    Today, 21 April, Sunday

    Time Temperature Precipitation Wind Pressure Humidity
    00:00 +19°C° 0 mm 3 mps 767 mmHg 96%
    01:00 +19°C° 0 mm 3 mps 767 mmHg 96%
    02:00 +19°C° 0 mm 3 mps 767 mmHg 97%
    03:00 +18°C° 0 mm 3 mps 767 mmHg 97%
    04:00 +18°C° 0 mm 3 mps 766 mmHg 98%
    05:00 +18°C° 0 mm 3 mps 767 mmHg 98%
    06:00 +18°C° 0 mm 3 mps 767 mmHg 97%
    07:00 +18°C° 0 mm 2 mps 767 mmHg 97%
    08:00 +20°C° 0 mm 3 mps 767 mmHg 86%
    09:00 +24°C° 0 mm 3 mps 767 mmHg 75%
    10:00 +26°C° 0 mm 3 mps 767 mmHg 64%
    11:00 +27°C° 0 mm 3 mps 766 mmHg 60%
    12:00 +28°C° 0 mm 3 mps 766 mmHg 56%
    13:00 +29°C° 0 mm 4 mps 766 mmHg 52%
    14:00 +28°C° 0 mm 4 mps 765 mmHg 56%
    15:00 +28°C° 0 mm 4 mps 765 mmHg 59%
    16:00 +27°C° 0 mm 4 mps 765 mmHg 63%
    17:00 +26°C° 0 mm 4 mps 765 mmHg 69%
    18:00 +23°C° 0 mm 4 mps 765 mmHg 76%
    19:00 +22°C° 0 mm 4 mps 766 mmHg 82%
    20:00 +21°C° 0 mm 4 mps 766 mmHg 84%
    21:00 +21°C° 0 mm 5 mps 766 mmHg 85%
    22:00 +20°C° 0 mm 5 mps 766 mmHg 87%
    23:00 +20°C° 0 mm 5 mps 766 mmHg 87%

    Tomorrow, 22 April, Monday

    Time Temperature Precipitation Wind Pressure Humidity
    00:00 +20°C° 0 mm 5 mps 766 mmHg 88%
    01:00 +19°C° 0 mm 5 mps 766 mmHg 88%
    02:00 +19°C° 0 mm 4 mps 765 mmHg 88%
    03:00 +18°C° 0 mm 4 mps 765 mmHg 89%
    04:00 +18°C° 0 mm 4 mps 765 mmHg 89%
    05:00 +18°C° 0 mm 3 mps 766 mmHg 89%
    06:00 +18°C° 0 mm 3 mps 766 mmHg 89%
    07:00 +18°C° 0 mm 3 mps 766 mmHg 88%
    08:00 +20°C° 0 mm 3 mps 766 mmHg 80%
    09:00 +22°C° 0 mm 3 mps 767 mmHg 71%
    10:00 +25°C° 0 mm 4 mps 767 mmHg 62%
    11:00 +26°C° 0 mm 3 mps 766 mmHg 59%
    12:00 +27°C° 0 mm 3 mps 766 mmHg 55%
    13:00 +28°C° 0 mm 3 mps 766 mmHg 52%
    14:00 +27°C° 0 mm 3 mps 765 mmHg 55%
    15:00 +27°C° 0 mm 3 mps 765 mmHg 59%
    16:00 +26°C° 0 mm 4 mps 765 mmHg 63%
    17:00 +25°C° 0 mm 4 mps 766 mmHg 70%
    18:00 +22°C° 0 mm 3 mps 766 mmHg 78%
    19:00 +21°C° 0 mm 3 mps 767 mmHg 85%
    20:00 +20°C° 0 mm 3 mps 767 mmHg 87%
    21:00 +20°C° 0 mm 3 mps 768 mmHg 88%
    22:00 +19°C° 0 mm 3 mps 768 mmHg 89%
    23:00 +19°C° 0 mm 3 mps 768 mmHg 91%

    Day after tomorrow, 23 April, Tuesday

    Time Temperature Precipitation Wind Pressure Humidity
    00:00 +18°C° 0 mm 2 mps 768 mmHg 94%
    01:00 +18°C° 0 mm 2 mps 768 mmHg 96%
    02:00 +18°C° 0 mm 2 mps 768 mmHg 96%
    03:00 +19°C° 0 mm 1 mps 768 mmHg 97%
    04:00 +18°C° 0 mm 1 mps 768 mmHg 97%
    05:00 +19°C° 0 mm 1 mps 768 mmHg 97%
    06:00 +17°C° 0 mm 0 mps 768 mmHg 97%
    07:00 +17°C° 0 mm 0 mps 769 mmHg 96%
    08:00 +21°C° 0.1 mm 1 mps 769 mmHg 86%
    09:00 +24°C° 0.1 mm 1 mps 769 mmHg 76%
    10:00 +26°C° 0.1 mm 1 mps 769 mmHg 66%
    11:00 +27°C° 0.1 mm 2 mps 769 mmHg 63%
    12:00 +27°C° 0.1 mm 2 mps 768 mmHg 60%
    13:00 +27°C° 0.1 mm 3 mps 768 mmHg 58%
    14:00 +27°C° 0 mm 3 mps 768 mmHg 60%
    15:00 +26°C° 0 mm 3 mps 768 mmHg 63%
    16:00 +26°C° 0 mm 3 mps 767 mmHg 66%
    17:00 +24°C° 0 mm 3 mps 768 mmHg 74%
    18:00 +21°C° 0 mm 3 mps 768 mmHg 82%
    19:00 +20°C° 0 mm 2 mps 769 mmHg 90%
    20:00 +19°C° 0 mm 2 mps 769 mmHg 92%
    21:00 +19°C° 0 mm 2 mps 769 mmHg 93%
    22:00 +19°C° 0 mm 2 mps 769 mmHg 94%
    23:00 +18°C° 0 mm 2 mps 769 mmHg 95%

    24 April, Wednesday

    Time Temperature Precipitation Wind Pressure Humidity
    00:00 +18°C° 0 mm 2 mps 769 mmHg 95%
    01:00 +19°C° 0 mm 1 mps 769 mmHg 96%
    02:00 +19°C° 0 mm 1 mps 768 mmHg 97%
    03:00 +18°C° 0 mm 1 mps 768 mmHg 97%
    04:00 +18°C° 0 mm 1 mps 768 mmHg 97%
    05:00 +18°C° 0 mm 1 mps 768 mmHg 97%
    06:00 +18°C° 0 mm 1 mps 768 mmHg 97%
    07:00 +19°C° 0 mm 1 mps 769 mmHg 96%
    08:00 +21°C° 0 mm 1 mps 769 mmHg 84%
    09:00 +23°C° 0 mm 1 mps 769 mmHg 71%
    10:00 +25°C° 0 mm 1 mps 769 mmHg 59%
    11:00 +26°C° 0 mm 1 mps 768 mmHg 56%
    12:00 +26°C° 0 mm 2 mps 768 mmHg 54%
    13:00 +27°C° 0 mm 2 mps 767 mmHg 51%
    14:00 +26°C° 0 mm 2 mps 767 mmHg 53%
    15:00 +26°C° 0 mm 3 mps 766 mmHg 55%
    16:00 +26°C° 0 mm 3 mps 766 mmHg 57%
    17:00 +24°C° 0 mm 3 mps 766 mmHg 64%
    18:00 +21°C° 0 mm 3 mps 767 mmHg 71%
    19:00 +20°C° 0 mm 3 mps 767 mmHg 78%
    20:00 +19°C° 0 mm 4 mps 767 mmHg 79%
    21:00 +19°C° 0 mm 4 mps 767 mmHg 81%
    22:00 +18°C° 0 mm 4 mps 767 mmHg 82%
    23:00 +18°C° 0 mm 3 mps 767 mmHg 85%

    25 April, Thursday

    Time Temperature Precipitation Wind Pressure Humidity
    00:00 +17°C° 0 mm 3 mps 766 mmHg 88%
    01:00 +17°C° 0 mm 3 mps 766 mmHg 90%
    02:00 +16°C° 0 mm 2 mps 766 mmHg 92%
    03:00 +16°C° 0 mm 2 mps 765 mmHg 93%
    04:00 +16°C° 0 mm 2 mps 765 mmHg 94%
    05:00 +16°C° 0 mm 2 mps 765 mmHg 93%
    06:00 +16°C° 0 mm 2 mps 766 mmHg 92%
    07:00 +16°C° 0 mm 2 mps 766 mmHg 90%
    08:00 +19°C° 0 mm 2 mps 766 mmHg 79%
    09:00 +23°C° 0 mm 2 mps 766 mmHg 67%
    10:00 +26°C° 0 mm 2 mps 766 mmHg 55%
    11:00 +26°C° 0 mm 2 mps 765 mmHg 54%
    12:00 +27°C° 0 mm 3 mps 765 mmHg 52%
    13:00 +28°C° 0 mm 3 mps 764 mmHg 50%
    14:00 +27°C° 0 mm 3 mps 764 mmHg 56%
    15:00 +26°C° 0 mm 3 mps 764 mmHg 62%
    16:00 +25°C° 0 mm 3 mps 764 mmHg 68%
    17:00 +23°C° 0 mm 2 mps 764 mmHg 78%
    18:00 +21°C° 0 mm 2 mps 765 mmHg 87%
    19:00 +20°C° 0 mm 1 mps 765 mmHg 96%
    20:00 +20°C° 0 mm 1 mps 765 mmHg 97%
    21:00 +19°C° 0 mm 1 mps 765 mmHg 97%
    22:00 +19°C° 0 mm 1 mps 765 mmHg 98%
    23:00 +19°C° 0 mm 1 mps 765 mmHg 98%

    26 April, Friday

    Time Temperature Precipitation Wind Pressure Humidity
    00:00 +19°C° 0 mm 1 mps 765 mmHg 98%
    01:00 +18°C° 0 mm 1 mps 764 mmHg 98%
    02:00 +18°C° 0 mm 1 mps 764 mmHg 98%
    03:00 +17°C° 0 mm 2 mps 764 mmHg 98%
    04:00 +17°C° 0 mm 2 mps 764 mmHg 98%
    05:00 +17°C° 0 mm 2 mps 764 mmHg 98%
    06:00 +17°C° 0 mm 2 mps 765 mmHg 98%
    07:00 +17°C° 0 mm 2 mps 765 mmHg 97%
    08:00 +19°C° 0 mm 2 mps 765 mmHg 88%
    09:00 +21°C° 0 mm 2 mps 765 mmHg 79%
    10:00 +24°C° 0 mm 2 mps 765 mmHg 70%
    11:00 +25°C° 0 mm 2 mps 764 mmHg 59%
    12:00 +27°C° 0 mm 2 mps 764 mmHg 48%
    13:00 +29°C° 0 mm 2 mps 763 mmHg 38%
    14:00 +27°C° 0 mm 3 mps 763 mmHg 42%
    15:00 +26°C° 0 mm 4 mps 763 mmHg 46%
    16:00 +25°C° 0 mm 4 mps 763 mmHg 50%
    17:00 +22°C° 0 mm 4 mps 764 mmHg 60%
    18:00 +20°C° 0 mm 3 mps 765 mmHg 70%
    19:00 +18°C° 0 mm 3 mps 765 mmHg 80%
    20:00 +17°C° 0 mm 3 mps 766 mmHg 84%
    21:00 +17°C° 0 mm 2 mps 766 mmHg 89%
    22:00 +17°C° 0 mm 2 mps 767 mmHg 93%
    23:00 +17°C° 0.1 mm 2 mps 767 mmHg 93%
    Show more